Location: *
(47.6569°N, 7.4256°E)
Time: 15:37:42
(UTC+00:00)

BREEZE-M R/B - Pass Details

Date: 14 December 2019
Orbit: 309 x 4546 km, 49.7° (Epoch: 26 January)

Event Time Altitude Azimuth Distance (km) Brightness Sun altitude
Rises 18:01:38 0° 289° (WNW) 3,598 8.0 -23.0°
Reaches altitude 10° 18:04:57 10° 287° (WNW) 2,130 6.7 -23.5°
Enters shadow 18:08:43 52° 255° (WSW) 585 3.2 -24.1°
